Wind_Speed
7 7 13 10 7 5 4 2 3 2 1 3 4 3 5 5 6 7 9 10 9 9 5 2 3 5 7 10 10 9 8 8 8 8 8 6 5 4 5 2 1 5 3
8 8 9 6 5 4 5 3 2 1 2 4 5 5 5 6 6 7 8 7 8 5 5 6 7 11 15 15 13 12 11 10 9 8 7 5 6 5 6 6 4 7 4
11 11 11 10 9 6 6 5 3 2 1 2 4 4 6 5 6 7 7 7 9 7 9 11 17 20 20 17 14 14 13 12 10 8 8 3 4 7 6 7 7 9 7
15 13 12 13 12 9 8 6 5 4 4 4 4 4 5 5 6 7 7 8 10 13 16 18 19 20 16 14 12 12 14 13 11 10 6 6 6 8 8 7 7 9 10
15 15 15 14 13 10 9 7 5 3 2 2 2 3 4 5 6 7 9 11 13 15 15 14 15 14 12 9 9 10 11 12 12 10 8 8 7 11 9 8 8 11 12
12 15 16 14 12 10 7 5 3 2 2 3 4 5 5 4 4 6 7 9 10 12 12 13 13 13 12 11 10 10 13 16 17 10 10 10 10 13 11 10 8 12 13
13 15 15 12 10 8 6 4 2 3 3 4 4 5 6 7 6 6 6 7 8 9 9 9 9 9 10 11 11 11 14 13 8 9 10 10 11 16 15 13 12 13 13
14 15 13 11 9 6 4 3 2 3 3 4 5 6 6 6 6 6 7 7 8 9 10 10 10 10 10 11 10 9 9 9 7 9 9 9 16 18 19 19 17 15 16
12 10 9 9 7 5 5 3 2 2 2 2 3 4 4 6 8 8 9 10 9 10 11 11 12 12 12 12 12 12 11 10 6 5 6 7 14 15 16 16 18 19 16
9 8 8 6 5 5 4 4 1 0 1 0 2 4 5 7 8 9 9 9 10 12 13 14 14 14 14 13 12 12 11 9 5 7 7 10 11 15 17 17 20 19 14
9 8 6 3 3 4 4 3 2 2 2 3 4 5 6 6 9 10 11 12 13 14 15 16 16 16 16 15 14 13 12 7 7 7 7 13 13 13 13 14 18 18 23
10 9 6 4 1 3 4 4 3 2 2 3 5 8 8 9 10 11 13 13 14 16 17 17 18 18 15 9 10 12 8 12 9 8 9 14 14 14 14 13 13 14 21
9 9 7 5 3 0 2 3 3 3 4 5 7 8 9 10 10 11 10 11 14 17 14 16 18 13 15 16 12 13 13 13 9 8 12 13 12 15 17 15 14 14 13
10 9 9 8 5 2 2 3 4 4 5 5 7 10 10 9 10 12 12 13 14 13 15 14 13 18 19 19 17 15 14 11 8 8 11 12 12 12 13 15 15 15 15
11 10 10 9 8 6 3 4 3 3 4 5 7 8 9 8 10 11 13 14 14 13 14 14 14 15 16 17 16 15 12 11 11 7 7 13 11 11 11 12 14 16 17
11 12 11 12 11 7 4 4 4 3 3 5 5 6 9 10 10 11 12 12 13 13 13 14 14 16 15 15 15 16 15 11 9 10 7 10 12 11 11 12 13 15 17
12 12 13 14 13 8 6 4 3 2 1 2 3 7 9 10 12 15 14 14 14 15 18 16 16 16 16 14 16 16 16 14 11 12 11 8 9 11 11 11 13 14 16
12 14 14 17 14 8 7 6 4 2 1 4 7 9 11 13 14 16 16 17 17 21 18 18 17 17 17 16 16 15 15 14 13 13 12 11 9 8 10 11 12 12 14
12 13 13 15 11 9 9 8 6 4 5 6 9 12 14 16 17 19 22 23 22 22 23 21 20 20 20 19 18 18 17 17 16 14 14 13 12 11 9 11 11 13 14
10 8 8 9 11 12 12 10 8 8 9 10 12 16 18 20 22 24 25 27 27 22 23 23 24 24 24 24 24 23 21 20 19 19 17 16 15 12 10 8 9 9 14
3 5 5 9 13 12 9 8 6 7 10 10 10 17 19 21 27 30 29 26 26 23 26 28 26 27 27 27 25 27 27 25 24 24 22 21 19 17 15 11 10 9 10
6 7 7 8 10 10 10 12 13 14 11 15 14 19 24 30 29 27 27 27 26 24 24 26 27 27 29 27 30 29 31 31 28 25 24 25 23 21 18 15 13 17 16
5 5 5 7 8 8 7 6 8 9 12 11 19 20 26 29 29 28 27 28 31 29 26 26 26 27 31 30 30 30 25 33 30 27 22 23 23 21 19 17 14 15 15
1 1 1 2 5 8 11 14 19 15 15 18 17 18 25 26 29 32 32 33 33 30 28 25 25 26 26 33 30 33 38 39 37 30 22 23 25 23 20 17 16 14 12
5 6 7 8 10 15 18 20 16 14 14 15 18 21 23 24 28 30 32 36 35 33 31 32 30 25 24 28 29 29 30 32 33 32 38 23 22 22 21 17 16 16 15
6 6 9 11 12 19 22 24 23 20 19 19 22 25 25 29 30 29 30 35 31 27 20 16 14 12 10 13 13 12 14 14 18 22 29 35 31 22 21 18 17 17 17
Wind_Direction
145 155 168 175 170 169 156 139 103 113 164 168 167 187 197 221 228 214 223 225 217 221 246 265 298 302 306 307 291 281 278 270 269 270 286 289 291 285 281 276 95 158 174
137 136 151 151 139 152 134 122 117 132 196 168 176 189 219 226 242 239 251 268 266 275 256 257 274 289 296 289 280 272 266 260 265 268 270 304 308 280 268 261 224 229 196
132 133 126 130 130 126 123 137 135 144 173 150 183 194 226 237 248 259 266 282 290 302 272 283 286 290 288 289 272 262 260 255 255 256 258 276 270 271 257 256 251 245 225
128 130 127 120 114 117 130 137 136 150 175 175 197 201 227 239 236 246 259 266 278 281 283 289 293 294 296 286 275 258 250 248 251 252 261 246 280 280 259 247 253 251 237
129 125 125 119 122 119 115 121 135 158 209 245 279 260 254 259 270 279 282 283 281 281 286 289 287 289 289 286 274 268 261 255 251 251 253 271 258 263 259 257 239 252 247
126 124 121 115 106 97 86 75 58 15 321 309 309 320 325 313 297 286 286 292 298 305 309 300 292 292 290 285 272 267 269 268 257 256 254 258 268 259 253 253 244 246 243
127 121 114 109 100 92 78 51 356 302 315 317 311 316 324 331 327 315 311 314 314 315 312 308 306 302 303 302 296 281 274 273 266 256 256 259 252 258 253 249 252 247 246
132 123 117 111 97 82 59 19 314 286 288 297 306 316 320 318 314 309 314 319 327 333 334 334 324 316 315 313 309 307 304 293 289 266 259 258 256 254 253 254 244 248 254
139 129 116 101 89 65 31 1 329 310 281 273 295 313 317 315 314 315 321 323 328 332 332 329 324 324 321 318 314 311 309 299 296 285 276 263 257 251 257 255 252 244 243
144 142 119 111 81 35 5 9 24 96 149 50 327 321 316 313 317 317 316 320 319 321 324 323 321 321 321 319 317 316 316 321 308 287 285 258 272 257 252 259 253 245 236
155 144 136 158 73 20 355 360 22 23 20 2 354 336 325 317 314 316 306 313 316 316 317 317 315 314 315 313 314 316 319 309 309 289 282 275 273 269 264 262 264 253 233
174 168 182 173 163 21 12 352 333 326 324 337 338 340 334 323 314 308 302 303 306 311 312 314 312 312 313 306 306 310 308 300 313 299 283 281 272 270 269 263 260 245 238
180 191 200 216 210 335 310 337 299 296 304 310 319 319 312 315 315 318 312 314 313 312 316 312 311 310 304 305 295 294 292 301 287 286 275 286 278 269 267 266 262 257 246
183 204 219 231 230 267 273 305 291 283 284 298 305 314 315 316 310 311 309 310 313 311 309 311 307 304 305 307 305 301 296 290 280 279 277 284 279 273 271 265 263 261 256
210 219 224 235 239 255 281 300 315 309 297 300 312 311 324 313 310 312 310 311 308 308 308 306 304 302 301 303 301 300 296 290 286 270 269 288 285 282 279 274 268 263 258
224 230 229 237 234 246 279 302 322 337 321 334 323 333 351 346 329 322 317 312 307 303 300 297 297 298 291 291 294 294 291 281 272 267 260 280 284 281 278 281 279 273 266
244 239 229 236 229 240 274 274 263 256 328 331 348 9 360 348 333 329 315 311 308 302 305 301 296 296 291 285 288 284 284 283 270 273 270 243 270 277 280 273 270 270 273
253 244 235 235 227 241 262 258 245 263 6 339 340 337 332 325 320 317 309 305 304 307 298 294 292 287 285 283 279 274 273 268 265 264 262 251 233 242 276 276 274 270 266
258 249 228 222 222 242 252 244 249 262 299 293 301 304 305 305 306 303 301 298 296 293 291 284 281 279 278 278 277 274 267 265 265 265 256 250 240 228 237 275 288 279 269
255 240 195 204 217 237 250 251 261 269 276 282 289 296 300 308 312 309 304 301 298 289 286 281 275 274 272 272 271 268 263 261 257 254 255 249 246 235 233 230 273 282 290
188 177 166 206 223 240 253 262 275 279 285 296 304 302 312 312 312 309 304 299 297 291 289 287 278 274 271 265 269 265 264 259 254 250 250 243 242 237 236 236 254 257 275
144 172 196 212 236 252 272 286 293 299 307 304 315 309 310 308 309 309 306 304 301 295 289 286 284 277 270 262 256 262 266 264 255 251 247 242 234 232 235 243 242 267 268
155 184 218 249 271 288 312 337 333 323 319 308 309 312 308 307 306 307 307 305 302 298 291 286 282 276 275 267 254 247 263 252 260 255 234 237 234 233 232 237 249 260 269
215 250 335 30 27 358 345 337 331 330 322 315 316 314 312 313 313 313 310 307 302 298 292 288 286 279 275 273 266 257 253 258 265 262 240 231 226 227 232 236 246 255 253
79 69 47 20 353 339 334 330 333 327 322 318 317 313 313 313 313 311 309 309 305 300 296 293 289 280 272 269 268 264 264 260 252 253 255 239 229 229 229 239 242 249 253
58 16 349 340 332 327 327 326 327 326 323 320 319 320 318 316 314 312 310 307 303 299 295 296 297 286 277 256 257 262 260 255 256 253 257 251 250 235 233 244 246 252 251
Height
1552 1552 1552 1553 1555 1556 1556 1558 1560 1561 1562 1562 1560 1561 1561 1561 1562 1559 1559 1559 1561 1560 1562 1561 1562 1563 1563 1560 1561 1558 1560 1560 1560 1559 1559 1558 1556 1556 1557 1556 1556 1555 1555
1554 1556 1556 1557 1558 1557 1558 1560 1560 1562 1563 1561 1562 1562 1561 1560 1562 1560 1560 1560 1563 1562 1563 1561 1562 1561 1561 1559 1559 1557 1556 1557 1558 1556 1558 1557 1556 1555 1556 1556 1556 1555 1555
1554 1555 1556 1558 1558 1559 1560 1561 1561 1562 1562 1562 1562 1561 1563 1561 1562 1562 1561 1560 1562 1561 1562 1560 1560 1559 1557 1556 1556 1555 1554 1555 1557 1555 1556 1558 1559 1554 1555 1554 1555 1556 1555
1554 1555 1557 1558 1557 1559 1561 1561 1562 1562 1562 1561 1563 1561 1562 1563 1561 1561 1561 1560 1560 1560 1560 1557 1557 1555 1555 1554 1553 1553 1552 1553 1554 1554 1556 1556 1556 1553 1554 1553 1554 1556 1557
1555 1557 1557 1559 1560 1561 1561 1561 1561 1563 1563 1562 1563 1562 1562 1562 1562 1562 1562 1561 1560 1560 1558 1557 1556 1554 1553 1553 1552 1552 1552 1552 1551 1553 1555 1554 1554 1553 1553 1554 1553 1555 1556
1559 1558 1559 1560 1561 1561 1562 1563 1564 1563 1563 1562 1563 1563 1562 1562 1561 1560 1560 1560 1560 1559 1557 1557 1556 1554 1553 1551 1550 1550 1549 1550 1551 1553 1553 1552 1550 1550 1550 1550 1550 1553 1553
1560 1561 1560 1561 1563 1564 1564 1563 1563 1563 1562 1562 1563 1562 1562 1561 1560 1560 1560 1559 1558 1557 1556 1555 1553 1552 1552 1551 1550 1549 1548 1547 1547 1550 1550 1550 1548 1547 1547 1547 1548 1550 1550
1560 1561 1562 1562 1562 1564 1564 1564 1564 1563 1562 1562 1562 1561 1561 1560 1561 1560 1559 1558 1557 1556 1555 1553 1552 1551 1550 1549 1548 1547 1546 1545 1546 1547 1547 1547 1544 1544 1545 1545 1546 1546 1547
1562 1563 1563 1563 1564 1564 1565 1564 1564 1563 1563 1562 1562 1561 1560 1560 1560 1559 1558 1557 1556 1554 1553 1552 1551 1549 1548 1547 1546 1545 1544 1544 1544 1544 1544 1545 1541 1541 1541 1541 1542 1543 1544
1563 1565 1565 1567 1565 1565 1565 1565 1564 1563 1562 1562 1561 1561 1561 1560 1559 1558 1557 1556 1555 1554 1553 1551 1550 1548 1547 1546 1545 1544 1543 1542 1543 1544 1543 1541 1539 1539 1538 1538 1538 1539 1540
1563 1565 1566 1567 1566 1565 1566 1566 1565 1563 1563 1562 1562 1562 1561 1561 1559 1558 1557 1556 1555 1554 1552 1550 1549 1548 1546 1545 1543 1542 1542 1543 1542 1542 1542 1537 1537 1536 1536 1535 1535 1536 1537
1562 1563 1566 1566 1566 1565 1566 1565 1564 1564 1563 1562 1562 1561 1561 1560 1559 1558 1556 1555 1554 1553 1551 1549 1547 1546 1545 1545 1543 1541 1542 1540 1540 1539 1539 1534 1534 1533 1533 1533 1533 1533 1534
1564 1565 1565 1566 1565 1566 1566 1565 1565 1564 1563 1563 1562 1561 1560 1559 1558 1557 1556 1555 1553 1550 1549 1547 1546 1545 1543 1542 1541 1539 1538 1537 1538 1537 1534 1532 1532 1531 1530 1530 1530 1530 1529
1564 1564 1566 1564 1565 1566 1566 1565 1564 1564 1564 1563 1563 1560 1560 1559 1558 1556 1556 1554 1552 1550 1548 1546 1545 1541 1540 1538 1537 1536 1535 1534 1535 1534 1530 1529 1528 1528 1527 1526 1526 1527 1527
1562 1563 1564 1563 1564 1565 1564 1563 1562 1562 1562 1562 1561 1560 1558 1558 1557 1555 1553 1552 1550 1548 1547 1544 1543 1541 1538 1536 1534 1533 1532 1531 1530 1531 1529 1526 1526 1525 1524 1523 1523 1523 1523
1561 1562 1561 1561 1563 1563 1562 1561 1561 1560 1560 1560 1560 1559 1558 1556 1555 1553 1552 1550 1548 1546 1544 1542 1540 1538 1536 1533 1531 1529 1529 1528 1527 1526 1527 1524 1522 1522 1522 1520 1520 1520 1519
1559 1559 1558 1559 1560 1561 1561 1560 1560 1560 1560 1560 1559 1558 1556 1554 1553 1551 1549 1548 1546 1543 1540 1537 1535 1533 1531 1530 1527 1526 1524 1523 1523 1521 1521 1521 1519 1518 1518 1517 1517 1516 1515
1555 1555 1555 1556 1559 1560 1560 1559 1559 1558 1558 1558 1557 1555 1553 1552 1550 1548 1546 1544 1542 1539 1538 1536 1534 1532 1530 1528 1526 1524 1523 1521 1519 1517 1517 1516 1516 1516 1513 1513 1513 1512 1512
1552 1551 1553 1555 1558 1558 1558 1557 1556 1556 1555 1556 1554 1553 1551 1549 1547 1544 1542 1539 1536 1534 1532 1529 1527 1527 1525 1524 1522 1520 1518 1517 1516 1515 1514 1512 1511 1511 1511 1508 1507 1507 1508
1549 1550 1553 1555 1555 1555 1555 1555 1555 1554 1554 1552 1551 1549 1546 1544 1542 1539 1537 1534 1530 1528 1526 1524 1521 1520 1519 1518 1516 1514 1512 1511 1509 1509 1508 1508 1508 1506 1505 1504 1503 1503 1503
1548 1550 1552 1552 1551 1553 1553 1554 1554 1552 1551 1550 1549 1544 1542 1539 1537 1534 1531 1528 1525 1523 1520 1517 1515 1512 1510 1511 1508 1506 1504 1503 1501 1500 1500 1500 1500 1500 1500 1499 1499 1499 1499
1547 1548 1550 1550 1550 1551 1551 1550 1550 1549 1548 1546 1544 1541 1538 1534 1532 1528 1525 1522 1520 1517 1513 1511 1509 1505 1502 1502 1500 1500 1496 1495 1493 1491 1492 1492 1492 1492 1492 1493 1491 1490 1492
1549 1549 1550 1550 1549 1549 1549 1549 1548 1547 1545 1543 1539 1536 1532 1529 1525 1522 1518 1514 1511 1508 1505 1502 1500 1498 1495 1493 1492 1491 1487 1482 1485 1484 1480 1484 1486 1485 1485 1484 1485 1483 1484
1549 1549 1549 1549 1549 1548 1547 1546 1544 1542 1540 1536 1532 1529 1525 1522 1518 1514 1511 1507 1503 1499 1495 1493 1491 1490 1489 1485 1484 1482 1477 1477 1475 1475 1472 1473 1475 1476 1478 1477 1478 1478 1478
1550 1550 1550 1550 1548 1546 1544 1542 1540 1538 1535 1532 1528 1523 1520 1516 1512 1507 1503 1498 1494 1491 1486 1482 1479 1478 1478 1477 1476 1473 1470 1467 1468 1468 1465 1466 1467 1468 1469 1469 1469 1472 1472
1551 1551 1549 1548 1546 1543 1540 1537 1535 1532 1529 1526 1523 1518 1514 1509 1505 1500 1494 1489 1485 1481 1479 1477 1473 1469 1468 1467 1467 1465 1463 1459 1460 1459 1460 1458 1459 1459 1463 1463 1463 1464 1466